Zurück zum Katalog

COSMOS 1823 DEB

AktivLEO
NORAD 19562·DEBRIS·🇷🇺 Russia

Gestartet Feb 20, 1987 von Plesetsk Cosmodrome

Loading…

Nächste Überflüge (nächste 24 Stunden)

TLE

AlterndSource: Space-Track

Epoche: Sep 12, 2026, 16:55 UTC

1 19562U 87020CD  26255.70498448  .00028615  00000-0  12254-1 0  9991
2 19562  74.3438 155.7340 0009222 234.1742 156.4048 14.24694830246143

Verfolge COSMOS 1823 DEB in Echtzeit mit AllMySat

Download on the App Store